Location: Newark
(48.1500°N, 2.9667°W)
Time: 23:57:26
(UTC+00:00)

Transit 2A Rocket - Visible Passes

Search period start: 27 January 2020 00:00
Search period end: 06 February 2020 00:00
Orbit: 593 x 910 km, 66.7° (Epoch: 27 January)

Date Brightness Start Highest point End Pass type
(mag) Time Alt. Az. Time Alt. Az. Time Alt. Az.
27 Jan 6.5 04:31:34 26° E 04:31:34 26° E 04:34:15 10° NE visible
27 Jan 5.1 06:11:31 29° W 06:12:53 37° NW 06:16:58 10° NNE visible
28 Jan 7.7 03:50:42 11° ENE 03:50:42 11° ENE 03:51:00 10° ENE visible
28 Jan 4.6 05:30:38 57° NNW 05:30:38 57° NNW 05:34:34 10° NNE visible
28 Jan 6.4 07:11:23 10° WNW 07:13:43 14° NNW 07:16:06 10° N visible
29 Jan 6.0 04:49:37 32° NE 04:49:37 32° NE 04:52:02 10° NE visible
29 Jan 6.0 06:29:32 17° WNW 06:30:46 19° NW 06:34:00 10° NNE visible
30 Jan 7.3 04:08:30 15° NE 04:08:30 15° NE 04:09:21 10° NE visible
30 Jan 5.7 05:48:24 27° NNW 05:48:24 27° NNW 05:51:44 10° NNE visible
31 Jan 6.1 05:07:12 26° N 05:07:12 26° N 05:09:24 10° NNE visible
31 Jan 6.6 06:47:18 10° NW 06:48:56 12° NNW 06:50:36 10° N visible
01 Feb 7.0 04:25:56 17° NNE 04:25:56 17° NNE 04:26:56 10° NNE visible
01 Feb 6.3 06:05:50 16° NNW 06:05:54 16° NNW 06:08:39 10° N visible
02 Feb 6.4 05:24:31 18° N 05:24:31 18° N 05:26:28 10° NNE visible
03 Feb 6.9 04:43:08 16° NNE 04:43:08 16° NNE 04:44:11 10° NNE visible
03 Feb 6.8 06:23:53 10° NNW 06:24:11 10° NNW 06:24:30 10° NNW visible
04 Feb 7.6 04:01:44 10° NNE 04:01:44 10° NNE 04:01:48 10° NNE visible
04 Feb 6.7 05:41:38 13° NNW 05:41:38 13° NNW 05:43:14 10° N visible
05 Feb 6.9 05:00:11 13° N 05:00:11 13° N 05:01:10 10° N visible
